CW4517 Weather Reports


Display with metric or nautical units.
time (UTC)temp
F
wind
direction
speed
MPH
gust
MPH
rain 1hr
in
rain 24hr
in
rain mn
in
humidity
%
barometer
mb
20260505170744 54 295 4.0 10.0 0.00 0.00 0.00 54 1005.5
20260505170229 55 215 5.0 10.0 0.00 0.00 0.00 53 1005.4
20260505165725 55 259 5.0 12.0 0.00 0.00 0.00 54 1005.4
20260505165224 55 235 5.0 12.0 0.00 0.00 0.00 51 1005.4
20260505164727 55 270 5.0 11.0 0.00 0.00 0.00 52 1005.4
20260505164224 56 273 4.0 10.0 0.00 0.00 0.00 52 1005.4
20260505163725 55 288 4.0 9.0 0.00 0.00 0.00 52 1005.4
20260505163222 55 285 4.0 9.0 0.00 0.00 0.00 53 1005.1
20260505162724 55 276 4.0 9.0 0.00 0.00 0.00 52 1005.1
20260505162221 55 303 4.0 8.0 0.00 0.00 0.00 57 1005.1
20260505161947 54 5 3.0 8.0 0.00 0.00 0.00 58 1005.0
20260505161217 53 310 2.0 6.0 0.00 0.00 0.00 60 1005.0
20260505160711 53 355 2.0 5.0 0.00 0.00 0.00 62 1005.0
20260505160206 53 269 3.0 7.0 0.00 0.00 0.00 63 1005.4
20260505153130 51 351 3.0 10.0 0.00 0.00 0.00 67 1005.1
20260505152619 50 348 3.0 7.0 0.00 0.00 0.00 71 1005.1
20260505152115 50 34 2.0 7.0 0.00 0.00 0.00 74 1005.1
20260505151611 49 31 1.0 4.0 0.00 0.00 0.00 79 1005.4
20260505151104 48 310 2.0 4.0 0.00 0.00 0.00 77 1005.4
20260505150559 48 244 2.0 4.0 0.00 0.00 0.00 81 1005.4
20260505140445 45 321 2.0 4.0 0.00 0.00 0.00 85 1005.9
20260505124812 47 5 4.0 10.0 0.00 0.00 0.00 76 1004.4
20260505124300 48 336 4.0 11.0 0.00 0.00 0.00 75 1004.4
20260505123747 48 11 5.0 11.0 0.00 0.00 0.00 73 1004.4
20260505123510 49 12 5.0 13.0 0.00 0.00 0.00 71 1004.6
20260505122743 50 9 5.0 13.0 0.00 0.00 0.00 68 1004.6
20260505122512 50 282 5.0 12.0 0.00 0.00 0.00 66 1004.6
20260505121742 51 13 3.0 9.0 0.00 0.00 0.00 65 1004.6
20260505121243 51 325 3.0 9.0 0.00 0.00 0.00 65 1004.6
20260505120742 51 328 3.0 8.0 0.00 0.00 0.00 65 1004.6
20260505120243 51 348 3.0 7.0 0.00 0.00 0.00 64 1004.4
20260505115743 51 349 3.0 7.0 0.00 0.00 0.00 64 1004.4
20260505115241 51 100 3.0 10.0 0.00 0.00 0.00 65 1004.4
20260505114741 51 327 3.0 10.0 0.00 0.00 0.00 64 1003.4
20260505114236 51 350 2.0 6.0 0.00 0.00 0.00 65 1003.4
20260505113728 51 350 3.0 7.0 0.00 0.00 0.00 65 1003.4
20260505113222 52 0 3.0 7.0 0.00 0.00 0.00 64 1003.3
20260505112928 52 355 3.0 7.0 0.00 0.00 0.00 64 1003.3
20260505112437 51 355 3.0 7.0 0.00 0.00 0.00 65 1003.3
20260505111705 51 342 2.0 7.0 0.00 0.00 0.00 67 1002.8
20260505111158 51 312 2.0 6.0 0.00 0.00 0.00 69 1002.8
20260505110655 51 48 2.0 6.0 0.00 0.00 0.00 69 1002.8
20260505110628 51 5 2.0 6.0 0.00 0.00 0.00 68 1002.2
20260505102058 53 228 3.0 5.0 0.00 0.00 0.00 68 1002.5
20260505101553 53 261 2.0 5.0 0.00 0.00 0.00 68 1002.3
20260505101045 53 240 1.0 3.0 0.00 0.00 0.00 68 1002.3
20260505100540 53 240 1.0 3.0 0.00 0.00 0.00 68 1002.3
20260505100030 53 240 1.0 3.0 0.00 0.00 0.00 68 1002.3
20260505095528 53 239 1.0 3.0 0.00 0.00 0.00 67 1002.3
20260505095024 53 239 1.0 3.0 0.00 0.00 0.00 67 1002.3
20260505094516 53 234 1.0 3.0 0.00 0.00 0.00 67 1002.3
20260505094010 54 234 2.0 4.0 0.00 0.00 0.00 66 1002.3
20260505093730 54 227 2.0 6.0 0.00 0.00 0.00 66 1002.3
20260505092959 54 280 3.0 6.0 0.00 0.00 0.00 66 1002.4
20260505092453 54 223 2.0 5.0 0.00 0.00 0.00 66 1002.4
20260505091945 54 257 2.0 5.0 0.00 0.00 0.00 66 1002.0
20260505091441 54 236 2.0 5.0 0.00 0.00 0.00 66 1002.0
20260505090935 53 227 2.0 5.0 0.00 0.00 0.00 67 1002.0
20260505090429 53 226 2.0 4.0 0.00 0.00 0.00 67 1001.6
20260505085919 53 245 2.0 4.0 0.00 0.00 0.00 69 1001.6
20260505085416 53 230 2.0 4.0 0.00 0.00 0.00 70 1001.6
20260505085135 53 230 2.0 4.0 0.00 0.00 0.00 70 1000.9
20260505084403 53 239 2.0 4.0 0.00 0.00 0.00 69 1000.9
20260505083858 54 223 1.0 4.0 0.00 0.00 0.00 68 1000.9
20260505083351 54 218 0.0 1.0 0.00 0.00 0.00 66 1000.9
20260505082839 54 218 1.0 2.0 0.00 0.00 0.00 66 1000.9
20260505082334 54 218 2.0 4.0 0.00 0.00 0.00 64 1000.9
20260505082326 54 218 2.0 4.0 0.00 0.00 0.00 65 1000.6
20260505081335 54 247 2.0 4.0 0.00 0.00 0.00 64 1000.6
20260505080833 54 215 2.0 5.0 0.00 0.00 0.00 63 1000.6
20260505080333 55 222 1.0 5.0 0.00 0.00 0.00 63 1000.1
20260505075834 55 259 1.0 2.0 0.00 0.00 0.00 63 1000.1
20260505075336 55 259 1.0 3.0 0.00 0.00 0.00 63 1000.1
20260505074835 55 273 1.0 3.0 0.00 0.00 0.00 63 999.7
20260505074335 55 277 0.0 3.0 0.00 0.00 0.00 63 999.7
20260505073830 55 278 0.0 4.0 0.00 0.00 0.00 62 999.7
20260505073322 55 286 0.0 4.0 0.00 0.00 0.00 61 999.6
20260505072816 55 284 0.0 3.0 0.00 0.00 0.00 59 999.6
20260505072311 55 284 0.0 3.0 0.00 0.00 0.00 59 999.6
20260505071801 56 281 0.0 3.0 0.00 0.00 0.00 59 999.3
20260505071744 56 284 0.0 3.0 0.00 0.00 0.00 59 999.3
20260505070752 56 286 0.0 3.0 0.00 0.00 0.00 58 999.3
20260505070247 56 296 1.0 4.0 0.00 0.00 0.00 58 999.3
20260505065740 56 295 2.0 6.0 0.00 0.00 0.00 59 999.3
20260505065230 57 276 3.0 7.0 0.00 0.00 0.00 58 999.3
20260505064945 57 286 3.0 8.0 0.00 0.00 0.00 58 998.8
20260505064443 57 300 2.0 8.0 0.00 0.00 0.00 59 998.8
20260505063716 57 308 2.0 7.0 0.00 0.00 0.00 59 998.8
20260505063212 58 349 3.0 8.0 0.00 0.00 0.00 60 998.6
20260505062932 58 290 3.0 8.0 0.00 0.00 0.00 59 998.6
20260505062159 58 259 3.0 7.0 0.00 0.00 0.00 61 998.6
20260505061646 58 198 3.0 8.0 0.00 0.00 0.00 61 998.6
20260505061145 58 257 3.0 14.0 0.00 0.00 0.00 61 998.6
20260505060640 58 270 3.0 14.0 0.00 0.00 0.00 62 998.6
20260505060350 59 202 4.0 9.0 0.00 0.00 0.00 64 998.6
20260505055627 59 333 4.0 9.0 0.00 0.00 0.00 65 998.6
20260505055120 59 298 3.0 9.0 0.00 0.00 0.00 66 998.6
20260505054620 59 254 4.0 12.0 0.00 0.00 0.00 68 998.6
20260505054109 59 281 4.0 12.0 0.00 0.00 0.00 69 998.6
20260505053603 59 286 4.0 15.0 0.00 0.00 0.00 72 998.6
20260505053057 59 225 4.0 15.0 0.00 0.00 0.00 75 998.7
20260505052552 58 301 3.0 8.0 0.00 0.00 0.00 79 998.7
20260505052047 58 255 3.0 8.0 0.00 0.00 0.00 80 998.7
20260505051540 59 267 3.0 7.0 0.00 0.00 0.00 80 998.5
20260505051035 59 240 4.0 9.0 0.00 0.00 0.00 81 998.5
20260505050527 59 259 4.0 9.0 0.00 0.00 0.00 81 998.5
20260505041426 58 227 4.0 8.0 0.00 0.00 0.00 84 997.9
20260505040915 58 230 4.0 8.0 0.00 0.00 0.00 84 997.9
20260505040413 58 215 3.0 7.0 0.00 0.00 0.00 84 997.9
20260505035908 58 213 4.0 7.0 0.00 0.00 0.00 85 997.9
20260505035626 58 221 4.0 7.0 0.00 0.00 0.00 85 997.9
20260505034857 58 211 5.0 9.0 0.00 0.00 0.00 85 997.9
20260505034351 58 220 5.0 10.0 0.00 0.00 0.00 85 997.9
20260505033844 58 206 6.0 10.0 0.00 0.00 0.00 84 997.9
20260505033336 58 215 5.0 12.0 0.00 0.00 0.00 84 997.9
20260505032829 58 226 5.0 12.0 0.00 0.00 0.00 83 997.9
20260505032323 59 218 5.0 10.0 0.00 0.00 0.00 83 997.9
20260505032040 59 221 5.0 10.0 0.00 0.00 0.00 82 997.6
20260505031530 59 200 5.0 10.0 0.00 0.00 0.00 82 997.6
20260505031026 59 182 4.0 10.0 0.00 0.00 0.00 82 997.6
20260505030252 59 204 3.0 10.0 0.00 0.00 0.00 81 997.3
20260505025741 59 215 3.0 7.0 0.00 0.00 0.00 81 997.3
20260505025227 59 228 3.0 8.0 0.00 0.00 0.00 81 997.3
20260505024941 59 239 2.0 7.0 0.00 0.00 0.00 82 997.4
20260505024202 58 165 2.0 6.0 0.00 0.00 0.00 83 997.4
20260505023649 58 168 2.0 6.0 0.00 0.00 0.00 83 997.4
20260505023138 58 141 2.0 6.0 0.00 0.00 0.00 82 997.5
20260505022626 58 182 2.0 6.0 0.00 0.00 0.00 82 997.5
20260505022113 59 152 3.0 7.0 0.00 0.00 0.00 82 997.5
20260505021609 58 177 3.0 7.0 0.00 0.00 0.00 82 997.0
20260505021058 59 186 3.0 6.0 0.00 0.00 0.00 82 997.0
20260505020552 59 151 3.0 7.0 0.00 0.00 0.00 82 997.0
20260505020042 59 197 5.0 8.0 0.00 0.00 0.00 81 997.0
20260505015538 59 207 5.0 14.0 0.00 0.00 0.00 81 997.0
20260505015515 59 228 6.0 14.0 0.00 0.00 0.00 81 997.0
20260505014526 59 213 7.0 13.0 0.00 0.00 0.00 82 997.6
20260505014021 58 253 8.0 24.0 0.00 0.00 0.00 82 997.6
20260505013509 58 202 9.0 24.0 0.00 0.00 0.00 83 997.6
20260505013008 58 243 11.0 26.0 0.00 0.00 0.00 83 998.0
20260505012729 58 223 10.0 26.0 0.00 0.00 0.00 84 998.0
20260505011956 58 247 12.0 27.0 0.00 0.00 0.00 83 998.0
20260505011450 59 243 10.0 27.0 0.00 0.00 0.00 82 996.9
20260505010940 59 215 6.0 19.0 0.00 0.00 0.00 81 996.9
20260505010438 60 251 5.0 10.0 0.00 0.00 0.00 80 996.7
20260505010149 60 233 5.0 9.0 0.00 0.00 0.00 81 996.7
20260505005426 60 201 5.0 12.0 0.00 0.00 0.00 83 996.7
20260505005139 60 171 7.0 13.0 0.00 0.00 0.00 83 996.3
20260505004415 60 208 8.0 19.0 0.00 0.00 0.00 82 996.3
20260505003909 61 178 6.0 19.0 0.00 0.00 0.00 81 996.3
20260505003359 63 244 4.0 13.0 0.00 0.00 0.00 78 996.1
20260505002857 65 281 5.0 13.0 0.00 0.00 0.00 77 996.1
20260505002351 66 276 5.0 12.0 0.00 0.00 0.00 74 996.1
20260505001839 67 286 7.0 17.0 0.00 0.00 0.00 72 996.0
20260505001338 68 252 7.0 17.0 0.00 0.00 0.00 70 996.0
20260505000832 68 306 6.0 14.0 0.00 0.00 0.00 70 996.0
20260505000544 69 292 7.0 18.0 0.00 0.00 0.00 69 994.7
20260504235821 69 224 7.0 18.0 0.00 0.00 0.00 69 994.7
20260504235314 69 232 7.0 14.0 0.00 0.00 0.00 68 994.7
20260504234808 69 201 8.0 15.0 0.00 0.00 0.00 67 995.1
20260504234301 68 213 9.0 23.0 0.00 0.00 0.00 67 995.1
20260504233756 67 209 8.0 23.0 0.00 0.00 0.00 70 995.1
20260504233246 68 184 8.0 15.0 0.00 0.00 0.00 70 994.9
20260504233006 68 236 7.0 15.0 0.00 0.00 0.00 69 994.9
20260504232237 67 238 9.0 21.0 0.00 0.00 0.00 72 994.9
20260504231727 67 186 11.0 27.0 0.00 0.00 0.00 71 994.8
20260504231225 69 229 9.0 27.0 0.00 0.00 0.00 69 994.8
20260504230719 71 199 6.0 12.0 0.00 0.00 0.00 66 994.8
20260504230432 71 226 6.0 18.0 0.00 0.00 0.00 64 995.7
20260504225659 70 208 4.0 18.0 0.00 0.00 0.00 65 995.7
20260504225424 70 252 3.0 7.0 0.00 0.00 0.00 64 995.7
20260504224923 72 245 4.0 10.0 0.00 0.00 0.00 60 995.1
20260504224159 74 273 6.0 13.0 0.00 0.00 0.00 56 995.1
20260504223700 75 269 9.0 22.0 0.00 0.00 0.00 54 995.1
20260504223204 75 247 11.0 23.0 0.00 0.00 0.00 53 994.9
20260504222700 75 232 10.0 23.0 0.00 0.00 0.00 53 994.9
20260504222159 75 217 10.0 21.0 0.00 0.00 0.00 53 994.9
20260504221659 75 223 9.0 21.0 0.00 0.00 0.00 53 995.2
20260504221416 75 215 8.0 21.0 0.00 0.00 0.00 52 995.2
20260504220642 76 227 9.0 17.0 0.00 0.00 0.00 52 995.2
20260504220132 76 202 10.0 20.0 0.00 0.00 0.00 51 995.2
20260504215626 76 215 11.0 25.0 0.00 0.00 0.00 49 995.2
20260504215119 76 248 11.0 25.0 0.00 0.00 0.00 48 995.2
20260504214833 76 207 11.0 25.0 0.00 0.00 0.00 48 995.1
20260504214326 77 231 12.0 25.0 0.00 0.00 0.00 47 995.1
20260504213824 78 222 12.0 24.0 0.00 0.00 0.00 47 995.1
20260504213056 78 230 11.0 23.0 0.00 0.00 0.00 46 995.4
20260504212546 78 200 11.0 23.0 0.00 0.00 0.00 46 995.4
20260504212306 78 227 12.0 23.0 0.00 0.00 0.00 46 995.4
20260504211538 78 199 12.0 23.0 0.00 0.00 0.00 47 995.6
20260504211032 78 187 11.0 21.0 0.00 0.00 0.00 49 995.6
20260504210526 78 175 10.0 27.0 0.00 0.00 0.00 47 995.6
20260504210020 78 238 12.0 27.0 0.00 0.00 0.00 45 995.9
20260504205515 78 196 12.0 24.0 0.00 0.00 0.00 47 995.9
20260504205009 78 227 11.0 22.0 0.00 0.00 0.00 47 995.9
20260504204501 79 169 12.0 28.0 0.00 0.00 0.00 47 995.7
20260504203955 79 201 12.0 28.0 0.00 0.00 0.00 47 995.7
20260504203450 79 211 11.0 22.0 0.00 0.00 0.00 43 995.9
20260504202939 79 220 11.0 22.0 0.00 0.00 0.00 42 995.9
20260504202656 80 189 9.0 21.0 0.00 0.00 0.00 42 995.9
20260504201931 79 248 9.0 18.0 0.00 0.00 0.00 42 996.1
20260504201425 79 213 10.0 18.0 0.00 0.00 0.00 41 996.1
20260504201136 79 225 9.0 18.0 0.00 0.00 0.00 41 996.1
20260504200415 78 239 9.0 18.0 0.00 0.00 0.00 38 996.4
20260504195904 78 241 10.0 20.0 0.00 0.00 0.00 43 996.4
20260504195402 78 212 9.0 20.0 0.00 0.00 0.00 42 996.4
20260504195124 79 213 9.0 23.0 0.00 0.00 0.00 38 996.4
20260504194359 79 233 8.0 23.0 0.00 0.00 0.00 38 996.4
20260504194122 79 210 7.0 23.0 0.00 0.00 0.00 40 996.4
20260504193359 78 197 8.0 23.0 0.00 0.00 0.00 40 996.4
20260504193122 79 235 10.0 25.0 0.00 0.00 0.00 38 996.4
20260504192355 78 255 11.0 25.0 0.00 0.00 0.00 39 996.4
20260504191854 78 240 10.0 29.0 0.00 0.00 0.00 40 996.4
20260504191354 79 263 10.0 29.0 0.00 0.00 0.00 39 996.4
20260504190854 79 271 10.0 21.0 0.00 0.00 0.00 41 996.4
20260504190352 78 209 10.0 26.0 0.00 0.00 0.00 40 996.7
20260504190117 78 237 11.0 26.0 0.00 0.00 0.00 41 996.7
20260504185351 78 225 11.0 21.0 0.00 0.00 0.00 41 996.7
20260504185114 78 187 10.0 21.0 0.00 0.00 0.00 43 996.9
20260504184350 77 262 11.0 22.0 0.00 0.00 0.00 43 996.9
20260504183851 77 221 11.0 22.0 0.00 0.00 0.00 44 996.9
20260504183610 77 222 10.0 19.0 0.00 0.00 0.00 45 997.0
20260504182847 77 228 10.0 20.0 0.00 0.00 0.00 47 997.0
20260504182338 77 282 10.0 20.0 0.00 0.00 0.00 44 997.0
20260504182324 76 212 10.0 22.0 0.00 0.00 0.00 44 997.0
20260504181338 76 235 10.0 22.0 0.00 0.00 0.00 45 997.0
20260504180838 76 232 10.0 23.0 0.00 0.00 0.00 45 997.0
20260504180339 76 232 10.0 23.0 0.00 0.00 0.00 46 997.3
20260504180105 76 204 11.0 22.0 0.00 0.00 0.00 47 997.3
20260504175338 76 294 10.0 19.0 0.00 0.00 0.00 48 997.3
20260504174841 75 232 9.0 16.0 0.00 0.00 0.00 51 997.5
20260504174340 75 248 9.0 23.0 0.00 0.00 0.00 51 997.5
20260504174101 74 221 9.0 23.0 0.00 0.00 0.00 52 997.5
20260504173333 74 236 9.0 17.0 0.00 0.00 0.00 54 997.9
20260504172822 74 220 9.0 20.0 0.00 0.00 0.00 53 997.9
20260504172321 73 207 9.0 20.0 0.00 0.00 0.00 54 997.9
20260504171815 74 234 8.0 15.0 0.00 0.00 0.00 53 998.0
20260504171310 74 238 8.0 15.0 0.00 0.00 0.00 53 998.0